Bismarck, ND

2:58 PM CDT on September 26, 2016 (GMT -0500)
Bismarck Municipal

Weather History for KBIS - March, 2013

Change the Weather History Date:

Tuesday, March 19, 2013

  Actual Average Record
Temperature  
Mean Temperature 10 °F 31 °F  
Max Temperature 19 °F 42 °F 70 °F (1910)
Min Temperature 1 °F 21 °F -14 °F (1875)
Degree Days  
Heating Degree Days 55 34  
Month to date heating degree days 813 720  
Since 1 July heating degree days 7122 7151  
Cooling Degree Days 0 0  
Month to date cooling degree days 0 0  
Year to date cooling degree days 0 0  
Moisture  
Dew Point 4 °F    
Average Humidity 72    
Maximum Humidity 87    
Minimum Humidity 56    
Precipitation  
Precipitation T in 0.03 in 0.69 in (1979)
Month to date precipitation 0.61 0.49  
Year to date precipitation 1.20 1.43  
Snow  
Snow T in 0.30 in 11.60 in (1982)
Month to date snowfall 3.6 5.9  
Since 1 July snowfall 32.2 43.4  
Snow Depth T in    
Sea Level Pressure  
Sea Level Pressure 30.31 in    
Wind  
Wind Speed 11 mph (NNW)    
Max Wind Speed 24 mph    
Max Gust Speed 32 mph    
Visibility 8 miles    
Events Snow    
T = Trace of Precipitation, MM = Missing Value Source: NWS Daily Summary

Daily Weather History Graph

Daily Weather History Graph

Search for Another Location

Airport or City:

Trip Planner

Search our weather history database for the weather conditions in past years. The results will help you decide how hot, cold, wet, or windy it might be!

Date:

Astronomy

Mar. 19, 2013 Rise Set
Actual Time 7:47 AM CDT 7:54 PM CDT
Civil Twilight 7:17 AM CDT 8:25 PM CDT
Nautical Twilight 6:41 AM CDT 9:00 PM CDT
Astronomical Twilight 6:05 AM CDT 9:37 PM CDT
Moon 12:18 PM CDT (3/19) 3:03 AM CDT (3/19)
Length of Visible Light 13h 07m
Length of Day
12h 07m
Waxing Crescent, 50% of the Moon is Illuminated
Mar 19
Waxing Crescent
Mar 19
First Quarter
Mar 27
Full
Apr 2
Last Quarter
Apr 10
New

Hourly Weather History & Observations

Time (CDT) Temp. Windchill Dew Point Humidity Pressure Visibility Wind Dir Wind Speed Gust Speed Precip Events Conditions
2:52 AM 1.9 °F - -2.0 °F 83% 30.13 in 10.0 mi Calm Calm - N/A   Clear
3:52 AM 3.0 °F -4.4 °F -0.9 °F 84% 30.14 in 10.0 mi ESE 3.5 mph - N/A   Mostly Cloudy
4:52 AM 5.0 °F - -0.0 °F 80% 30.13 in 10.0 mi Calm Calm - N/A   Overcast
5:52 AM 8.1 °F -0.5 °F 3.0 °F 80% 30.13 in 2.5 mi NE 4.6 mph - 0.00 in Snow Light Snow
6:01 AM 8.1 °F -2.0 °F 3.0 °F 80% 30.03 in 5.0 mi NNE 5.8 mph - 0.00 in Snow Light Snow
6:52 AM 8.1 °F -3.2 °F 3.0 °F 80% 30.18 in 7.0 mi NNE 6.9 mph - 0.00 in Snow Light Snow
7:52 AM 8.1 °F 1.4 °F 3.0 °F 80% 30.21 in 10.0 mi East 3.5 mph - 0.00 in   Overcast
8:52 AM 9.0 °F 0.6 °F 3.0 °F 77% 30.24 in 4.0 mi NNE 4.6 mph - 0.00 in Snow Light Snow
9:31 AM 10.0 °F - 3.9 °F 76% 30.14 in 7.0 mi Calm Calm - 0.00 in   Overcast
9:52 AM 10.9 °F 2.9 °F 3.9 °F 73% 30.27 in 10.0 mi North 4.6 mph - 0.00 in   Overcast
10:35 AM 14.0 °F 2.0 °F 6.1 °F 71% 30.18 in 2.5 mi NNW 9.2 mph - 0.00 in Snow Light Snow
10:45 AM 14.0 °F 2.9 °F 7.0 °F 74% 30.18 in 3.0 mi NW 8.1 mph - 0.00 in Snow Light Snow
10:52 AM 14.0 °F 3.9 °F 7.0 °F 74% 30.30 in 5.0 mi NW 6.9 mph - 0.00 in Snow Light Snow
11:52 AM 17.1 °F 1.5 °F 8.1 °F 68% 30.32 in 9.0 mi NNW 17.3 mph 26.5 mph 0.00 in Snow Light Snow
12:52 PM 17.1 °F 0.1 °F 6.1 °F 62% 30.36 in 10.0 mi NNW 20.7 mph 27.6 mph 0.00 in   Overcast
1:52 PM 17.1 °F 0.6 °F 6.1 °F 62% 30.39 in 10.0 mi NNW 19.6 mph 27.6 mph N/A   Overcast
2:52 PM 17.1 °F 2.0 °F 5.0 °F 59% 30.41 in 10.0 mi NW 16.1 mph 25.3 mph N/A   Overcast
3:52 PM 17.1 °F 1.5 °F 6.1 °F 62% 30.42 in 10.0 mi NW 17.3 mph 28.8 mph N/A   Overcast
4:52 PM 16.0 °F -2.5 °F 3.9 °F 59% 30.44 in 10.0 mi NNW 24.2 mph 32.2 mph N/A   Mostly Cloudy
5:52 PM 17.1 °F -0.6 °F 5.0 °F 59% 30.45 in 10.0 mi NNW 23.0 mph 28.8 mph N/A   Mostly Cloudy
6:52 PM 16.0 °F 0.6 °F 3.0 °F 57% 30.48 in 10.0 mi NW 16.1 mph 24.2 mph N/A   Scattered Clouds
7:52 PM 14.0 °F -0.8 °F 1.9 °F 59% 30.49 in 10.0 mi NNW 13.8 mph - N/A   Clear
8:52 PM 12.0 °F -2.0 °F 3.0 °F 67% 30.50 in 10.0 mi NW 11.5 mph - N/A   Clear
9:52 PM 10.9 °F -5.4 °F 3.0 °F 70% 30.51 in 10.0 mi NW 15.0 mph - N/A   Clear
10:52 PM 9.0 °F -4.2 °F 1.9 °F 73% 30.51 in 10.0 mi NW 9.2 mph - N/A   Clear
11:52 PM 9.0 °F -3.2 °F 1.0 °F 70% 30.51 in 10.0 mi NW 8.1 mph - N/A   Clear